• In Denmark
  • List of Countries
  • For 7 days
  • Water Temperature
  • Satellite Maps
  • Weather Map
  • Weather Widgets
  • user-avatar
    Login

    Hourly Weather Szeged

    Today, 17 October, Wednesday

    Time Temperature Precipitation Wind Pressure Humidity
    00:00 +16°C° 0 mm 2 mps 759 mmHg 37%
    01:00 +15°C° 0 mm 1 mps 759 mmHg 38%
    02:00 +15°C° 0 mm 1 mps 759 mmHg 39%
    03:00 +14°C° 0 mm 2 mps 759 mmHg 40%
    04:00 +14°C° 0 mm 2 mps 759 mmHg 41%
    05:00 +14°C° 0 mm 2 mps 759 mmHg 41%
    06:00 +14°C° 0 mm 2 mps 759 mmHg 41%
    07:00 +14°C° 0 mm 2 mps 759 mmHg 41%
    08:00 +17°C° 0 mm 2 mps 759 mmHg 36%
    09:00 +19°C° 0 mm 2 mps 759 mmHg 31%
    10:00 +23°C° 0 mm 2 mps 759 mmHg 26%
    11:00 +24°C° 0 mm 2 mps 759 mmHg 24%
    12:00 +25°C° 0 mm 2 mps 758 mmHg 22%
    13:00 +26°C° 0 mm 2 mps 758 mmHg 20%
    14:00 +26°C° 0 mm 2 mps 757 mmHg 21%
    15:00 +25°C° 0 mm 2 mps 757 mmHg 22%
    16:00 +25°C° 0 mm 2 mps 757 mmHg 23%
    17:00 +23°C° 0 mm 2 mps 757 mmHg 26%
    18:00 +20°C° 0 mm 2 mps 757 mmHg 28%
    19:00 +19°C° 0 mm 2 mps 757 mmHg 30%
    20:00 +18°C° 0 mm 2 mps 757 mmHg 32%
    21:00 +17°C° 0 mm 2 mps 757 mmHg 33%
    22:00 +18°C° 0 mm 1 mps 757 mmHg 34%
    23:00 +16°C° 0 mm 1 mps 757 mmHg 36%

    Tomorrow, 18 October, Thursday

    Time Temperature Precipitation Wind Pressure Humidity
    00:00 +16°C° 0 mm 1 mps 757 mmHg 37%
    01:00 +15°C° 0 mm 1 mps 757 mmHg 39%
    02:00 +15°C° 0 mm 1 mps 757 mmHg 41%
    03:00 +15°C° 0 mm 1 mps 757 mmHg 43%
    04:00 +15°C° 0 mm 1 mps 756 mmHg 44%
    05:00 +15°C° 0 mm 1 mps 756 mmHg 45%
    06:00 +15°C° 0 mm 1 mps 757 mmHg 45%
    07:00 +15°C° 0 mm 1 mps 757 mmHg 46%
    08:00 +17°C° 0 mm 2 mps 757 mmHg 42%
    09:00 +19°C° 0 mm 2 mps 757 mmHg 39%
    10:00 +21°C° 0 mm 2 mps 757 mmHg 35%
    11:00 +23°C° 0 mm 2 mps 756 mmHg 33%
    12:00 +24°C° 0 mm 2 mps 756 mmHg 31%
    13:00 +25°C° 0 mm 2 mps 756 mmHg 29%
    14:00 +25°C° 0 mm 2 mps 756 mmHg 30%
    15:00 +24°C° 0 mm 2 mps 755 mmHg 30%
    16:00 +24°C° 0 mm 2 mps 755 mmHg 31%
    17:00 +23°C° 0 mm 2 mps 755 mmHg 31%
    18:00 +21°C° 0 mm 2 mps 755 mmHg 32%
    19:00 +20°C° 0 mm 2 mps 756 mmHg 33%
    20:00 +19°C° 0 mm 2 mps 756 mmHg 33%
    21:00 +19°C° 0 mm 2 mps 756 mmHg 34%
    22:00 +18°C° 0 mm 2 mps 756 mmHg 34%
    23:00 +18°C° 0 mm 2 mps 756 mmHg 35%

    Day after tomorrow, 19 October, Friday

    Time Temperature Precipitation Wind Pressure Humidity
    00:00 +19°C° 0 mm 1 mps 756 mmHg 36%
    01:00 +18°C° 0 mm 1 mps 756 mmHg 36%
    02:00 +18°C° 0 mm 1 mps 756 mmHg 38%
    03:00 +18°C° 0 mm 1 mps 756 mmHg 39%
    04:00 +16°C° 0 mm 1 mps 756 mmHg 40%
    05:00 +16°C° 0 mm 1 mps 756 mmHg 41%
    06:00 +16°C° 0 mm 1 mps 756 mmHg 42%
    07:00 +16°C° 0 mm 1 mps 757 mmHg 42%
    08:00 +18°C° 0 mm 2 mps 757 mmHg 39%
    09:00 +19°C° 0 mm 2 mps 757 mmHg 36%
    10:00 +21°C° 0 mm 2 mps 757 mmHg 32%
    11:00 +23°C° 0 mm 2 mps 757 mmHg 31%
    12:00 +24°C° 0 mm 3 mps 757 mmHg 31%
    13:00 +25°C° 0 mm 3 mps 757 mmHg 30%
    14:00 +24°C° 0 mm 3 mps 757 mmHg 31%
    15:00 +24°C° 0 mm 3 mps 757 mmHg 33%
    16:00 +23°C° 0 mm 2 mps 757 mmHg 34%
    17:00 +21°C° 0 mm 2 mps 757 mmHg 39%
    18:00 +19°C° 0 mm 2 mps 757 mmHg 43%
    19:00 +18°C° 0 mm 2 mps 757 mmHg 48%
    20:00 +17°C° 0 mm 2 mps 758 mmHg 52%
    21:00 +16°C° 0 mm 2 mps 758 mmHg 57%
    22:00 +15°C° 0 mm 2 mps 758 mmHg 61%
    23:00 +15°C° 0 mm 2 mps 758 mmHg 65%

    20 October, Saturday

    Time Temperature Precipitation Wind Pressure Humidity
    00:00 +14°C° 0 mm 2 mps 759 mmHg 69%
    01:00 +14°C° 0 mm 2 mps 759 mmHg 72%
    02:00 +14°C° 0 mm 2 mps 759 mmHg 75%
    03:00 +13°C° 0 mm 2 mps 759 mmHg 77%
    04:00 +13°C° 0 mm 2 mps 759 mmHg 80%
    05:00 +13°C° 0 mm 2 mps 760 mmHg 80%
    06:00 +12°C° 0 mm 3 mps 760 mmHg 80%
    07:00 +12°C° 0 mm 3 mps 760 mmHg 80%
    08:00 +14°C° 0 mm 3 mps 760 mmHg 71%
    09:00 +17°C° 0 mm 4 mps 761 mmHg 61%
    10:00 +19°C° 0 mm 4 mps 761 mmHg 52%
    11:00 +20°C° 0 mm 5 mps 761 mmHg 49%
    12:00 +21°C° 0 mm 5 mps 760 mmHg 45%
    13:00 +21°C° 0 mm 5 mps 760 mmHg 42%
    14:00 +21°C° 0 mm 5 mps 760 mmHg 43%
    15:00 +21°C° 0 mm 4 mps 760 mmHg 44%
    16:00 +20°C° 0 mm 4 mps 760 mmHg 44%
    17:00 +19°C° 0 mm 4 mps 761 mmHg 49%
    18:00 +18°C° 0 mm 4 mps 761 mmHg 53%
    19:00 +17°C° 0 mm 3 mps 761 mmHg 57%
    20:00 +16°C° 0 mm 3 mps 762 mmHg 61%
    21:00 +14°C° 0 mm 3 mps 762 mmHg 64%
    22:00 +13°C° 0 mm 3 mps 762 mmHg 67%
    23:00 +12°C° 0 mm 3 mps 762 mmHg 68%

    21 October, Sunday

    Time Temperature Precipitation Wind Pressure Humidity
    00:00 +12°C° 0 mm 3 mps 762 mmHg 68%
    01:00 +11°C° 0 mm 3 mps 763 mmHg 69%
    02:00 +11°C° 0 mm 3 mps 763 mmHg 68%
    03:00 +10°C° 0 mm 3 mps 763 mmHg 67%
    04:00 +10°C° 0 mm 3 mps 763 mmHg 67%
    05:00 +10°C° 0 mm 3 mps 763 mmHg 64%
    06:00 +10°C° 0 mm 3 mps 763 mmHg 61%
    07:00 +10°C° 0 mm 4 mps 763 mmHg 59%
    08:00 +11°C° 0 mm 4 mps 764 mmHg 52%
    09:00 +13°C° 0 mm 4 mps 764 mmHg 45%
    10:00 +14°C° 0 mm 5 mps 764 mmHg 37%
    11:00 +15°C° 0 mm 5 mps 763 mmHg 36%
    12:00 +16°C° 0 mm 5 mps 763 mmHg 34%
    13:00 +17°C° 0 mm 5 mps 762 mmHg 32%
    14:00 +16°C° 0 mm 5 mps 762 mmHg 33%
    15:00 +17°C° 0 mm 4 mps 762 mmHg 34%
    16:00 +17°C° 0 mm 4 mps 762 mmHg 35%
    17:00 +14°C° 0 mm 3 mps 762 mmHg 40%
    18:00 +13°C° 0 mm 3 mps 762 mmHg 44%
    19:00 +11°C° 0 mm 3 mps 762 mmHg 49%
    20:00 +11°C° 0 mm 3 mps 762 mmHg 53%
    21:00 +10°C° 0 mm 3 mps 762 mmHg 57%
    22:00 +9°C° 0 mm 3 mps 762 mmHg 61%
    23:00 +8°C° 0 mm 3 mps 762 mmHg 63%

    22 October, Monday

    Time Temperature Precipitation Wind Pressure Humidity
    00:00 +8°C° 0 mm 3 mps 761 mmHg 66%
    01:00 +7°C° 0 mm 3 mps 761 mmHg 68%
    02:00 +7°C° 0 mm 3 mps 761 mmHg 70%
    03:00 +7°C° 0 mm 3 mps 761 mmHg 71%
    04:00 +5°C° 0 mm 3 mps 761 mmHg 73%
    05:00 +5°C° 0 mm 3 mps 761 mmHg 74%
    06:00 +5°C° 0 mm 3 mps 761 mmHg 74%
    07:00 +5°C° 0 mm 3 mps 761 mmHg 75%
    08:00 +8°C° 0 mm 3 mps 761 mmHg 66%
    09:00 +10°C° 0 mm 3 mps 761 mmHg 57%
    10:00 +12°C° 0 mm 3 mps 761 mmHg 48%
    11:00 +13°C° 0 mm 3 mps 761 mmHg 45%
    12:00 +14°C° 0 mm 3 mps 760 mmHg 41%
    13:00 +16°C° 0 mm 3 mps 760 mmHg 38%
    14:00 +16°C° 0 mm 2 mps 760 mmHg 39%
    15:00 +15°C° 0 mm 2 mps 759 mmHg 40%
    16:00 +15°C° 0 mm 1 mps 759 mmHg 41%
    17:00 +14°C° 0 mm 1 mps 759 mmHg 45%
    18:00 +12°C° 0 mm 1 mps 759 mmHg 49%
    19:00 +11°C° 0 mm 1 mps 759 mmHg 53%
    20:00 +10°C° 0 mm 1 mps 759 mmHg 55%
    21:00 +9°C° 0 mm 0 mps 759 mmHg 57%
    22:00 +8°C° 0 mm 0 mps 759 mmHg 59%
    23:00 +8°C° 0 mm 0 mps 759 mmHg 60%
    Show more